Simultaneous Nadir Overpasses (SNOs) Predictions

Prediction of SNOs between NOAA-19 and TERRA Satellite Orbit:

Table of predicted SNOs for the next 14.0 days since TLE Epoch: 10/30/2021
Index Date (NOAA-19) Time (NOAA-19) Lat,Lon (NOAA-19) SZA (NOAA-19 ) Date (TERRA) Time (TERRA) Lat,Lon (TERRA) SZA (TERRA ) Distance(km) Time Diff (sec)
1 10/30/2021 12:15:21 80.50, 30.88 96.44 10/30/2021 12:16:11 80.51, 30.95 96.48 2.13 50
2 10/30/2021 13:06:18 -80.49,-161.69 83.54 10/30/2021 13:05:39 -80.48,-161.76 83.58 1.83 39
3 11/01/2021 18:39:26 80.50, -64.98 97.18 11/01/2021 18:39:20 80.50, -64.99 97.18 0.54 6
4 11/04/2021 00:12:30 -80.50, 31.69 82.13 11/04/2021 00:13:02 -80.51, 31.70 82.11 1.15 32
5 11/04/2021 01:03:31 80.49,-160.89 97.90 11/04/2021 01:02:29 80.48,-160.97 97.85 1.99 62
6 11/06/2021 05:45:37 80.51, 128.26 98.54 11/06/2021 05:46:43 80.52, 128.36 98.58 2.02 66
7 11/06/2021 06:36:36 -80.51, -64.38 81.45 11/06/2021 06:36:11 -80.49, -64.31 81.47 2.24 25
8 11/08/2021 12:09:41 80.52, 32.29 99.20 11/08/2021 12:09:51 80.50, 32.29 99.19 2.25 10
9 11/10/2021 17:42:46 -80.51, 129.16 80.17 11/10/2021 17:43:32 -80.53, 129.20 80.13 2.01 46
10 11/10/2021 18:33:45 80.50, -63.37 99.86 11/10/2021 18:32:59 80.50, -63.51 99.82 2.76 46



Historial Predications of SNOs between NOAA-19 and TERRA
